Flag for Finland Weather past 2 weeks in Rovaniemi, Finland

Now
23 °F

Overcast.


Feels Like: 12 °F
Forecast: 14 / 19 °F
Wind: 12 mph from North

Location: Rovaniemi Airport

Current Time: Dec 21, 2014 at 3:08:31 PM

Latest Report: Dec 21, 2014 at 2:20 PM


Visibility: N/A

Pressure: 29.24 "Hg

Humidity: 93%

Dew point: 21 °F

Location of RovaniemiLocation

Historic Weather in Rovaniemi — Graph

°F

Rovaniemi temperature yesterday

Maximum temperature yesterday: 23 °F (at 1:20 AM)
Minimum temperature yesterday: 19 °F (at 11:20 PM)
Average temperature yesterday: 23 °F

Past Weeks' High & Low Weather Summary

 TemperatureHumidityPressure
High36 °F (Dec 8, 6:20 AM)100% (Dec 6, 1:20 PM)29.65 "Hg (Dec 6, 1:20 PM)
Low18 °F (Dec 17, 9:50 PM)87% (Dec 10, 9:50 AM)28.80 "Hg (Dec 20, 7:20 AM)
Average28 °F99%29.25 "Hg
* Reported Dec 6 1:20 PM — Dec 21 1:20 PM, Rovaniemi, Weather by CustomWeather, © 2014

Note: Actual official high and low records may vary slightly from our data, if they occured in-between our weather recording intervals... More about our weather records

Advertising

Rovaniemi weather history for previous 24 hours

 ConditionsComfort  
Time TempWeatherWind HumidityBarometerVisibility
1:20 PM
Dec 21
21 °FSnow flurries. Overcast.13 mph100%29.21 "HgN/A
12:50 PM21 °FPartly sunny.10 mph100%29.21 "HgN/A
12:20 PM21 °FSnow flurries. Partly sunny.13 mph100%29.21 "HgN/A
11:50 AM21 °FPartly sunny.14 mph100%29.18 "HgN/A
11:20 AM21 °FBroken clouds.13 mph100%29.18 "HgN/A
10:50 AM21 °FPassing clouds.14 mph100%29.18 "HgN/A
10:20 AM21 °FPassing clouds.13 mph100%29.18 "HgN/A
9:50 AM21 °FClear.12 mph100%29.15 "Hg10 mi
9:20 AM21 °FPassing clouds.16 mph93%29.15 "HgN/A
8:50 AM19 °FClear.14 mph100%29.12 "Hg10 mi
8:20 AM19 °FClear.13 mph100%29.12 "Hg10 mi
7:50 AM19 °FClear.12 mph100%29.12 "Hg10 mi
7:20 AM19 °FClear.12 mph100%29.09 "Hg10 mi
6:50 AM19 °FClear.10 mph100%29.09 "Hg10 mi
6:20 AM19 °FClear.9 mph93%29.09 "Hg10 mi
5:50 AM19 °FClear.10 mph93%29.09 "Hg10 mi
5:20 AM19 °FClear.9 mph93%29.06 "Hg10 mi
4:50 AM19 °FClear.8 mph93%29.06 "Hg10 mi
4:20 AM19 °FClear.12 mph93%29.06 "Hg10 mi
3:50 AM19 °FOvercast.10 mph100%29.06 "HgN/A
3:20 AM19 °FSnow flurries. Passing clouds.12 mph100%29.03 "HgN/A
2:50 AM19 °FSnow flurries. Overcast.10 mph100%29.03 "Hg4 mi
2:20 AM19 °FSnow flurries. Overcast.8 mph100%29.03 "Hg2 mi
1:50 AM19 °FSnow flurries. Passing clouds.7 mph100%29.03 "Hg5 mi
1:20 AM19 °FSnow flurries. Overcast.9 mph100%29.00 "HgN/A
12:50 AM19 °FSnow flurries. Partly cloudy.10 mph100%29.00 "HgN/A
12:20 AM19 °FSnow flurries. Passing clouds.12 mph100%29.00 "HgN/A
11:50 PM
Dec 20
19 °FSnow flurries. Overcast.10 mph100%28.97 "HgN/A
11:20 PM19 °FSnow flurries. Ice fog.10 mph100%28.97 "Hg2 mi
10:50 PM21 °FIce fog.10 mph100%28.97 "Hg2 mi
10:20 PM23 °FPassing clouds.14 mph93%28.94 "HgN/A
9:50 PM23 °FSnow flurries. Mostly cloudy.14 mph93%28.94 "HgN/A
9:20 PM23 °FSnow flurries. Partly cloudy.15 mph100%28.94 "HgN/A
8:50 PM23 °FLight snow. Passing clouds.15 mph100%28.94 "HgN/A
8:20 PM23 °FSnow flurries. Partly cloudy.15 mph100%28.91 "HgN/A
7:20 PM23 °FLight snow. Mostly cloudy.16 mph100%28.91 "HgN/A
6:50 PM23 °FLight snow. Mostly cloudy.16 mph100%28.91 "Hg4 mi
6:20 PM23 °FLight snow. Overcast.16 mph93%28.88 "Hg4 mi
5:50 PM23 °FLight snow. Partly cloudy.16 mph93%28.88 "Hg4 mi
5:20 PM23 °FLight snow. Passing clouds.16 mph93%28.88 "HgN/A
4:50 PM23 °FSnow flurries. Mostly cloudy.15 mph93%28.88 "HgN/A
4:20 PM23 °FSnow flurries. Passing clouds.16 mph93%28.85 "HgN/A
3:50 PM23 °FLight snow. Passing clouds.15 mph93%28.85 "HgN/A
3:20 PM23 °FSnow flurries. Partly cloudy.15 mph93%28.85 "Hg3 mi
Weather by CustomWeather, © 2014

See weather overviewHow to use our weather pages